Location: Vidojevica
(43.1414°N, 21.5558°E)
Time: 02:34:35
(UTC+02:00)

Tiangong 2 - Visible Passes

Search period start: 20 October 2018 00:00
Search period end: 29 October 2018 23:00
Orbit: 384 x 393 km, 42.8° (Epoch: 19 October)

Date Brightness Start Highest point End Pass type
(mag) Time Alt. Az. Time Alt. Az. Time Alt. Az.
28 Oct 3.0 18:16:58 10° SSW 18:18:39 21° S 18:18:39 21° S visible
29 Oct 3.1 17:19:19 10° S 17:21:25 17° SSE 17:23:06 12° ESE visible
29 Oct 4.0 18:54:44 10° WSW 18:55:24 15° WSW 18:55:24 15° WSW visible
